{"data":{"norad_id":68055,"intl_designator":"2026-041R","name":"STARLINK-35998","alt_names":[],"object_type":"PAYLOAD","status":"ACTIVE","operator":null,"country":"US","launch_date":"2026-03-02","launch_site_code":"AFETR","launch_vehicle":null,"mission":null,"orbit_class":"UNKNOWN","rcs_meters":null,"size_class":null,"mass_kg":null,"dimensions":null,"purposes":["comms"],"wikipedia_slug":null,"has_3d_model":false,"image_url":null,"decayed_at":null,"tle_current":{"epoch":"2026-05-25T04:00:03.998880Z","epoch_age_seconds":60366,"freshness":"FRESH","line1":"1 68055U 26041R   26145.16671295  .00080461  00000+0  23709-2 0  9993","line2":"2 68055  53.1602  54.8023 0001107  94.6804 318.0062 15.34349067  5866","mean_motion":15.34349067,"eccentricity":0.0001107,"inclination_deg":53.1602,"raan_deg":54.8023,"arg_perigee_deg":94.6804,"mean_anomaly_deg":318.0062,"bstar":0.0023709,"rev_number":586,"period_min":93.850873374957,"perigee_km":462.09733023118,"apogee_km":463.61192577763,"semimajor_km":6840.9916280044,"source":"CELESTRAK","updated_at":"2026-05-25T13:38:21.813702Z"}}}